User: anonymous   Login
Location: Unspecified
(0.0000°N, 0.0000°E)
Time: 08:03:06
(UTC+02:00)
Language:

deb Delta 98 - Orbit

View from above orbital plane
View from above orbital plane
View from above satellite
View from above satellite

Ground track
Ground track

The orbit data is extracted from the following two-line orbital elements,

1  7145U 73086DK  17295.32911653 +.00000003 +00000-0 +56957-3 0  9993
2  7145 101.9716 072.0357 0315135 293.8924 089.8399 11.81420790895622
Epoch (UTC): 22 October 2017 07:53:55
Eccentricity: 0.0315135
inclination: 101.9716°
perigee height: 1508 km
apogee height: 2022 km
right ascension of ascending node: 72.0357°
argument of perigee: 293.8924°
revolutions per day: 11.81420790
mean anomaly at epoch: 89.8399°
orbit number at epoch: 89562

The dashed part of the orbit path shows where the satellite is in the earth's shadow,  

DLR